Location: Kellogg
(38.0159°N, 90.0546°W)
Time: 22:31:41
(UTC+00:00)

SR - Pass Details

Date: 15 September 2024
Orbit: 578 x 855 km, 66.7° (Epoch: 09 October)

Event Time Altitude Azimuth Distance (km) Brightness Sun altitude
Rises 18:16:43 0° 190° (S) 2,838 ? 54.3°
Reaches altitude 10° 18:19:05 10° 183° (S) 1,914 ? 54.2°
Maximum altitude 18:23:04 40° 113° (ESE) 855 ? 54.0°
Drops below altitude 10° 18:27:02 10° 43° (NE) 1,893 ? 53.9°
Sets 18:29:21 0° 36° (NE) 2,802 ? 53.7°
